TimeEDT,TemperatureF,Dew PointF,Humidity,Sea Level PressureIn,VisibilityMPH,Wind Direction,Wind SpeedMPH,Gust SpeedMPH,PrecipitationIn,Events,Conditions,WindDirDegrees,DateUTC
12:51 AM,53.1,48.0,83,29.94,10.0,NNW,9.2,-,N/A,,Overcast,340,2012-03-26 04:51:00
1:48 AM,53.6,48.2,82,29.97,10.0,NNW,9.2,-,N/A,,Overcast,330,2012-03-26 05:48:00
1:51 AM,53.1,48.0,83,29.94,10.0,NNW,9.2,-,N/A,,Overcast,330,2012-03-26 05:51:00
2:06 AM,53.6,48.2,82,29.97,10.0,NNW,10.4,-,N/A,,Overcast,330,2012-03-26 06:06:00
2:36 AM,53.6,48.2,82,29.97,10.0,NNW,11.5,-,N/A,,Overcast,340,2012-03-26 06:36:00
2:51 AM,53.1,48.0,83,29.95,10.0,North,10.4,-,N/A,,Overcast,350,2012-03-26 06:51:00
3:51 AM,51.1,46.9,86,29.94,10.0,North,9.2,-,N/A,,Mostly Cloudy,350,2012-03-26 07:51:00
4:47 AM,50.0,46.4,87,29.97,10.0,NW,8.1,-,N/A,,Partly Cloudy,320,2012-03-26 08:47:00
4:51 AM,50.0,46.0,86,29.95,10.0,NNW,9.2,-,N/A,,Partly Cloudy,330,2012-03-26 08:51:00
5:01 AM,50.0,46.4,87,29.98,9.0,NW,11.5,-,N/A,,Partly Cloudy,320,2012-03-26 09:01:00
5:24 AM,50.0,46.4,87,29.98,8.0,NNW,6.9,-,N/A,,Mostly Cloudy,330,2012-03-26 09:24:00
5:51 AM,50.0,46.9,89,29.98,8.0,North,9.2,-,N/A,,Overcast,350,2012-03-26 09:51:00
6:51 AM,50.0,46.9,89,29.99,8.0,NW,5.8,-,N/A,,Overcast,310,2012-03-26 10:51:00
7:51 AM,50.0,46.9,89,30.01,6.0,NW,5.8,-,N/A,,Overcast,320,2012-03-26 11:51:00
7:58 AM,50.0,46.4,87,30.03,6.0,NW,4.6,-,N/A,,Overcast,320,2012-03-26 11:58:00
8:30 AM,50.0,46.4,87,30.05,6.0,NNW,5.8,-,N/A,,Overcast,340,2012-03-26 12:30:00
8:51 AM,50.0,46.0,86,30.04,6.0,NNW,8.1,-,N/A,,Overcast,330,2012-03-26 12:51:00
9:51 AM,51.1,46.9,86,30.06,7.0,NNW,8.1,-,N/A,,Overcast,340,2012-03-26 13:51:00
9:58 AM,51.8,46.4,82,30.08,7.0,North,8.1,-,N/A,,Overcast,350,2012-03-26 13:58:00
10:35 AM,53.6,46.4,77,30.08,7.0,NNW,6.9,-,N/A,,Mostly Cloudy,340,2012-03-26 14:35:00
10:51 AM,55.0,46.9,74,30.06,8.0,NNW,9.2,-,N/A,,Scattered Clouds,340,2012-03-26 14:51:00
11:30 AM,55.4,46.4,72,30.09,10.0,NNW,10.4,-,N/A,,Overcast,340,2012-03-26 15:30:00
11:51 AM,55.9,45.0,67,30.07,10.0,North,13.8,20.7,N/A,,Overcast,350,2012-03-26 15:51:00
12:05 PM,57.2,44.6,63,30.10,10.0,NW,12.7,18.4,N/A,,Mostly Cloudy,320,2012-03-26 16:05:00
12:51 PM,57.0,44.1,62,30.07,10.0,North,16.1,23.0,N/A,,Mostly Cloudy,350,2012-03-26 16:51:00
1:51 PM,55.9,42.1,60,30.07,10.0,North,15.0,24.2,N/A,,Unknown,350,2012-03-26 17:51:00
2:19 PM,55.4,42.8,63,30.10,10.0,North,17.3,24.2,N/A,,Overcast,350,2012-03-26 18:19:00
3:51 PM,59.0,35.1,41,30.06,10.0,NW,11.5,19.6,N/A,,Clear,310,2012-03-26 19:51:00
4:51 PM,57.9,12.9,17,30.06,10.0,NW,17.3,26.5,N/A,,Clear,310,2012-03-26 20:51:00
5:51 PM,55.9,17.1,22,30.08,10.0,North,18.4,24.2,N/A,,Clear,350,2012-03-26 21:51:00
6:51 PM,52.0,21.0,30,30.11,10.0,NW,16.1,27.6,N/A,,Clear,310,2012-03-26 22:51:00
7:51 PM,48.9,23.0,36,30.14,10.0,NNW,15.0,-,N/A,,Clear,330,2012-03-26 23:51:00
8:51 PM,46.0,23.0,40,30.16,10.0,North,8.1,-,N/A,,Clear,350,2012-03-27 00:51:00
9:51 PM,43.0,21.9,43,30.19,10.0,North,6.9,-,N/A,,Clear,360,2012-03-27 01:51:00
10:51 PM,42.1,23.0,47,30.20,10.0,NNW,11.5,-,N/A,,Clear,340,2012-03-27 02:51:00
11:51 PM,39.9,23.0,51,30.21,10.0,North,10.4,-,N/A,,Clear,360,2012-03-27 03:51:00